Location: Geroldsau
(48.7259°N, 8.2466°E)
Time: 10:17:13
(UTC+00:00)

USA 281 - Pass Details

Date: 20 June 2021
Orbit: 1078 x 1081 km, 106.0° (Epoch: 18 July)

Event Time Altitude Azimuth Distance (km) Brightness Sun altitude
Rises 02:08:55 0° 154° (SSE) 3,867 5.9 -9.4°
Reaches altitude 10° 02:11:25 10° 155° (SSE) 2,915 5.2 -9.2°
Maximum altitude 02:18:00 83° 244° (WSW) 1,094 3.2 -8.5°
Drops below altitude 10° 02:24:37 10° 333° (NNW) 2,933 5.8 -7.8°
Sets 02:27:08 0° 334° (NNW) 3,893 6.5 -7.6°
